Tracking 19709 objects as of 20-Jun-2019
HD Live streaming from Space Station
objects crossing your sky now

FLOCK 3R 13

Track FLOCK 3R 13 now!
10-day predictions
FLOCK 3R 13 is classified as:


NORAD ID: 43750
Int'l Code: 2018-096AH
Perigee: 475.2 km
Apogee: 503.7 km
Inclination: 97.5 °
Period: 94.3 minutes
Semi major axis: 6860 km
RCS: Unknown
Launch date: November 29, 2018
Source: United States (US)
Launch site: SRIHARIKOTA (SRI)
aabbcc
Your satellite tracking list
Your tracking list is empty




NASA's NSSDC Master Catalog

Two Line Element Set (TLE):
1 43750U 18096AH  19171.19561143  .00001442  00000-0  55597-4 0  9998
2 43750  97.4599 241.4759 0020824 337.9418  22.0923 15.27826204 30993
Source of the keplerian elements: AFSPC